Location: Newark
(35.2672°N, 80.7344°W)
Time: 04:56:52
(UTC+00:00)

Transit 2A Rocket - All Passes

Search period start: 26 January 2020 00:00
Search period end: 05 February 2020 00:00
Orbit: 593 x 910 km, 66.7° (Epoch: 25 January)

Date Brightness Start Highest point End Pass type
(mag) Time Alt. Az. Time Alt. Az. Time Alt. Az.
26 Jan - 10:04:49 10° SSW 10:09:09 77° WNW 10:13:27 10° NNE visible
26 Jan - 18:50:10 10° N 18:54:49 38° ENE 18:59:51 10° SE daylight
26 Jan - 20:33:08 10° WNW 20:37:11 24° WSW 20:41:31 10° SSW daylight
27 Jan - 09:22:28 10° S 09:26:41 50° ESE 09:30:51 10° NE visible
27 Jan - 11:07:17 10° W 11:09:30 14° NW 11:11:43 10° NNW visible
27 Jan - 18:08:14 10° N 18:12:07 22° NE 18:16:16 10° ESE daylight
27 Jan - 19:49:58 10° NW 19:54:47 43° WSW 20:00:00 10° S daylight
28 Jan - 08:40:46 10° SSE 08:44:18 24° ESE 08:47:48 10° NE night (unlit)
28 Jan - 10:23:08 10° WSW 10:26:42 25° NW 10:30:16 10° N visible
28 Jan - 17:26:57 10° NNE 17:29:18 13° NE 17:31:44 10° ENE daylight
28 Jan - 19:07:15 10° NNW 19:12:18 81° WSW 19:17:50 10° SSE daylight
29 Jan - 08:00:21 10° SE 08:02:01 12° ESE 08:03:40 10° E night (unlit)
29 Jan - 09:39:52 10° SW 09:44:02 47° WNW 09:48:13 10° NNE visible
29 Jan - 18:24:49 10° NNW 18:29:46 56° ENE 18:35:10 10° SE daylight
29 Jan - 20:08:50 10° WNW 20:11:59 16° WSW 20:15:15 10° SW daylight
30 Jan - 08:57:10 10° SSW 09:01:30 83° ESE 09:05:49 10° NNE night (unlit)
30 Jan - 17:42:39 10° N 17:47:09 32° ENE 17:51:58 10° ESE daylight
30 Jan - 19:25:11 10° NW 19:29:37 30° WSW 19:34:23 10° S daylight
31 Jan - 08:15:02 10° S 08:19:04 39° ESE 08:23:04 10° NE night (unlit)
31 Jan - 09:58:55 10° W 10:01:43 17° NW 10:04:34 10° N visible
31 Jan - 17:00:52 10° N 17:04:25 19° NE 17:08:09 10° E daylight
31 Jan - 18:42:13 10° NW 18:47:11 54° WSW 18:52:36 10° S daylight
01 Feb - 07:33:38 10° SSE 07:36:43 19° ESE 07:39:47 10° ENE night (unlit)
01 Feb - 09:15:10 10° WSW 09:18:58 30° WNW 09:22:50 10° N night (unlit)
01 Feb - 16:20:10 10° NNE 16:21:32 11° NE 16:22:56 10° ENE daylight
01 Feb - 17:59:35 10° NNW 18:04:41 83° ENE 18:10:16 10° SSE daylight
01 Feb - 19:45:54 10° W 19:46:43 10° WSW 19:47:33 10° WSW daylight
02 Feb - 08:32:06 10° SW 08:36:22 61° WNW 08:40:39 10° NNE night (unlit)
02 Feb - 17:17:15 10° NNW 17:22:07 46° ENE 17:27:25 10° SE daylight
02 Feb - 19:00:39 10° WNW 19:04:26 20° WSW 19:08:24 10° SSW daylight
03 Feb - 07:49:35 10° SSW 07:53:52 64° ESE 07:58:07 10° NNE night (unlit)
03 Feb - 09:35:24 10° WNW 09:36:50 11° NW 09:38:17 10° NNW night (unlit)
03 Feb - 16:35:11 10° N 16:39:28 27° NE 16:44:02 10° ESE daylight
03 Feb - 18:17:19 10° NW 18:22:03 36° WSW 18:27:08 10° S daylight
04 Feb - 07:07:40 10° S 07:11:28 30° ESE 07:15:14 10° NE night (unlit)
04 Feb - 08:50:44 10° WSW 08:53:59 21° NW 08:57:16 10° N night (unlit)
04 Feb - 15:53:36 10° NNE 15:56:41 16° NE 15:59:55 10° E daylight
04 Feb - 17:34:29 10° NNW 17:39:35 67° WSW 17:45:09 10° SSE daylight
